FENGYUN 1C DEB, 30312

Orbit data source: Space-Track

FENGYUN 1C DEB, 30312 is space debris in SSO originally from a launch on Mon, 10 May 1999 UTC launched from the Taiyaun Space Center, China (TSC). Fengyun 1C debris stems from the Chinese weather satellite Fengyun-1C, which was intentionally destroyed by a Chinese anti-satellite missile in 2007. This event dramatically increased the amount of space debris, with thousands of trackable fragments posing hazards to satellites and human spaceflight. The Fengyun 1C debris cloud has become a focal point in discussions about space sustainability and the need for international regulations to prevent the creation of new debris.

Loading next visibility...
Identifier
30312, 1999-025ZZ
Orbit
SSO
Country
Flag of CNCN / PRC
Related business
Manufacturer
Unknown
Mission
Spacecraft
Bus & Motor
Unknown
Mass
Unknown
Launch date (UTC)
1999-05-10 (27 years ago)
Launch vehicle
Unknown
Launch site
Taiyaun Space Center, China (TSC)
Object type
Payload
Rocket body
Debris
Shape & HBR
Unknown shape, 0.1 m
Radar Cross Section
Medium (>0.1 m² and <1 m²)

Expand to show TLE details & history
Last TLE update: 1 day ago

TLE from 1 day ago
0 FENGYUN 1C DEB
1 30312U 99025ZZ  26207.21823793  .00006832  00000-0  17983-2 0  9995
2 30312  98.8599 302.1900 0009377 242.0857 147.9870 14.49356321 11824
Epoch: 2026-07-26T05:14Z
TLE epoch observation values (Epoch: 2026-07-26T05:14:15.757Z)
Latitude
29.78528°
Longitude
-85.38622°
Altitude
737.145 km
Speed
7.486 km/s
True Right ascension
19h 48m 23s
True Declination
29° 38' 13"
Sunlit
Object was in full shadow at epoch
Visualization orbit readout
Latitude
Unknown
Longitude
Unknown
Altitude
Unknown
Speed
Unknown
Apparent Right ascension
Unknown
Apparent Declination
Unknown
Sunlit
N/A
Visualization observer readout
Local Sidereal Time
00:03:10
Azimuth
Unknown
Elevation
Unknown
Doppler factor
Unknown
Orbital elements
Apogee altitude
731.539 km
Perigee altitude
718.218 km
Semi-major axis
7,103.015 km
Eccentricity
0.00094
Inclination
98.8599°
RAAN
302.19°
Arg. of periapsis
242.0857°
True anomaly
148.04391°
Mean anomaly
147.987°
Eccentric anomaly
148.01546°
Mean motion
3.62559 °/min
Orbital period
99.29 mins
BSTAR
0.0017983
Loading maneuver chart data...
Computing Atmospheric mass density...
Loading historical data...
Loading historical data...
Loading historical data...
Loading historical data...
Loading historical data...
Loading historical data...
Loading historical data...

Documentation

Showing up to 5 results
|